Location: Arndorf
(49.1748°N, 12.8860°E)
Time: 05:23:59
(UTC+00:00)

Daily predictions for brighter satellites

Satellite Brightness Start Highest point End
(mag) Time Altitude Azimuth Time Altitude Azimuth Time Altitude Azimuth
SJ 16-02 3.8 00:03:06 12° ESE 00:04:04 12° E 00:05:52 10° ENE
Landsat 4 4.4 00:01:19 10° N 00:04:39 48° NW 00:04:39 48° NW
SL-16 R/B 3.6 00:03:00 10° NNW 00:08:15 36° NE 00:13:28 10° ESE
Cosmos 1025 Rocket 2.8 00:07:51 10° N 00:12:09 87° ENE 00:12:13 86° ESE
Cosmos 1777 Rocket 4.3 00:12:23 48° SE 00:13:16 54° ESE 00:18:27 10° NNE
CZ-4 R/B 4.1 00:08:38 10° N 00:13:33 61° WNW 00:14:24 52° WSW
NOSS 0 Rocket 3.9 00:08:05 10° NW 00:14:17 69° WSW 00:15:54 49° S
CZ-2D R/B 3.2 00:09:39 10° NNE 00:14:43 37° E 00:16:30 29° SE
COSMOS 2428 3.3 00:11:22 10° NW 00:16:41 40° WSW 00:16:52 40° WSW
GEOS 3 Rocket 3.8 00:11:41 10° NE 00:17:04 61° SE 00:18:01 52° S
Meteor 1-29 3.5 00:13:52 10° NNE 00:16:43 57° NNE 00:16:43 57° NNE
ADEOS II 4.3 00:14:14 10° NE 00:17:35 17° E 00:20:30 11° SE
Cosmos 2360 Rocket 4.2 00:15:26 10° WNW 00:17:41 13° W 00:17:41 13° W
Lacrosse 4 Rocket 2.6 00:17:22 31° WNW 00:18:18 34° NW 00:22:11 10° NNE
Cosmos 2026 Rocket 4.0 00:21:14 10° N 00:27:21 76° E 00:29:55 37° SSE
Cosmos 1536 Rocket 3.3 00:23:37 10° NNW 00:27:59 82° W 00:28:12 78° SSW
KORONAS-FOTON 4.4 00:25:23 10° N 00:29:05 50° ENE 00:29:28 47° E
Cosmos 1627 Rocket 4.4 00:25:44 10° N 00:31:55 86° E 00:34:24 39° SSE
Cosmos 2297 Rocket 2.5 00:30:52 43° SSE 00:32:20 56° ESE 00:37:52 10° NE
Cosmos 1980 3.6 00:27:47 10° NNW 00:33:25 67° WSW 00:34:49 49° S
Cosmos 1634 Rocket 4.1 00:31:20 40° SSE 00:33:43 72° E 00:39:56 10° NNE
Cosmos 2219 3.3 00:32:41 48° S 00:34:08 67° ESE 00:39:43 10° NNE
Cosmos 2333 Rocket 3.5 00:31:26 10° NW 00:35:43 24° W 00:35:43 24° W
MOZ.5/SAFIR/RUBIN 5/SL-8 3.7 00:38:19 59° S 00:39:10 77° WSW 00:43:58 10° NNW
ERBS 4.0 00:37:00 10° NW 00:38:34 25° NW 00:38:34 25° NW
Cosmos 1626 3.8 00:37:15 10° N 00:40:33 29° ENE 00:42:03 22° ESE
Cosmos 1766 4.2 00:41:48 35° ESE 00:42:27 38° E 00:46:06 10° NNE
Cosmos 2237 Rocket 2.2 00:37:38 10° NW 00:43:12 60° WSW 00:44:32 47° SSW
Helios 1B rocket 3.7 00:49:22 10° N 00:52:55 29° WNW 00:53:28 28° W
Cosmos 1607 4.1 00:50:13 10° NW 00:56:42 82° NE 01:03:11 10° SE
Cosmos 1538 Rocket 4.2 00:54:02 10° NNW 00:59:03 51° WSW 00:59:58 45° SW
CZ-4C R/B 2.9 01:00:00 72° W 01:00:00 72° W 01:03:25 10° NNW
ATLAS 3B R/B 4.0 00:55:08 10° W 01:01:03 34° NNW 01:07:06 10° NE
SL-16 R/B 2.5 00:59:59 34° S 01:02:50 68° WSW 01:09:06 10° NNW
Okean 2 Rocket 4.1 01:02:15 31° W 01:03:00 32° WNW 01:07:04 10° N
COBE Rocket 4.2 01:00:26 25° SE 01:03:05 61° ENE 01:07:41 10° N
SAR-Lupe-3 4.4 01:00:02 10° NNE 01:03:39 87° ESE 01:03:55 75° S
USA 215 3.8 00:57:57 10° ENE 01:04:07 42° SE 01:06:48 29° S
FALCON 9 DEB 3.4 01:08:42 11° WNW 01:12:01 68° NNE 01:15:29 10° ESE
Resurs 1-4 Rocket 2.0 01:07:01 10° NNE 01:12:20 79° WNW 01:14:25 38° SSW
Cosmos 1805 3.1 01:13:32 59° SW 01:14:10 77° W 01:18:05 10° N
Okean 1-7 Rocket 4.3 01:11:01 10° N 01:15:20 50° ENE 01:18:34 17° SSE
Cosmos 2266 Rocket 4.4 01:11:11 10° N 01:17:31 62° ENE 01:23:42 10° SSE
SL-14 R/B 3.4 01:13:53 10° N 01:17:49 71° E 01:19:23 34° SSE
BREEZE-M R/B 4.4 01:19:06 18° E 01:19:06 18° E 01:19:55 10° E
Okean 1 Rocket 3.1 01:18:56 45° SW 01:20:00 60° WNW 01:24:20 10° N
Meteor 1-15 Rocket 4.3 01:17:58 35° SW 01:20:17 63° WNW 01:25:52 10° N
Uosat 12 SS-18 rocket 4.3 01:18:28 38° SW 01:20:17 72° NW 01:24:45 10° NE
Cosmos 2227 Rocket 2.2 01:19:04 35° SW 01:21:32 77° WNW 01:27:15 10° NNE
Cosmos 1674 3.3 01:18:15 10° NNW 01:21:38 37° W 01:21:38 37° W
Cosmos 1655 Rocket 4.0 01:16:55 10° N 01:23:15 86° E 01:28:01 18° S
Cosmos 2112 Rocket 4.0 01:19:15 10° NNW 01:24:31 82° ENE 01:29:34 11° SSE
AQUA 3.7 01:21:57 10° NNE 01:26:45 83° WNW 01:28:45 35° SSW
Cosmos 1733 3.1 01:27:32 49° SSW 01:28:27 75° W 01:32:18 10° N
UNK 4.3 01:27:34 35° SW 01:28:29 38° W 01:32:52 10° NNW
CBERS-1 4.1 01:26:15 10° NNE 01:31:25 73° ESE 01:34:16 27° S
Cosmos 1758 4.4 01:34:06 19° SSE 01:36:38 41° E 01:40:26 10° NNE
NOSS 3-1 (C) 4.0 01:33:35 23° S 01:36:39 44° ESE 01:42:34 10° NE
USA 267 3.4 01:31:14 10° ESE 01:37:47 79° NNE 01:44:20 10° NW
ARIANE 5 R/B 3.5 01:33:21 10° NNE 01:38:20 42° E 01:42:41 13° SSE
Cosmos 1898 Rocket 3.9 01:35:45 24° S 01:38:49 59° ESE 01:43:58 10° NNE
Meteor 2-19 Rocket 4.4 01:34:06 10° NNW 01:40:14 71° W 01:44:42 19° S
Cosmos 1680 Rocket 3.5 01:36:47 10° NNW 01:41:58 64° WSW 01:45:53 17° S
SJ 16-02 1.3 01:40:06 34° SSW 01:41:58 81° WNW 01:46:25 10° NNE
Cosmos 2082 3.6 01:39:45 29° SSW 01:42:47 88° WNW 01:48:27 10° NNE
Cosmos 1726 3.9 01:41:51 11° SSE 01:44:54 27° E 01:48:03 10° NNE
Cosmos 990 Rocket 4.1 01:44:13 25° S 01:47:17 74° ESE 01:52:28 10° NNE
IDEFIX/ARIANE 42P 3.9 01:42:55 10° NNE 01:47:40 35° E 01:52:24 10° SSE
Cosmos 1340 Rocket 3.2 01:48:30 22° S 01:50:55 60° E 01:54:50 10° NNE
SL-16 R/B 2.5 01:47:05 10° NW 01:52:31 47° WSW 01:56:45 16° S
Cosmos 1626 Rocket 4.2 01:48:48 10° N 01:53:04 56° ENE 01:57:19 10° SSE
Cosmos 1455 Rocket 3.0 01:51:23 25° S 01:53:54 87° WNW 01:58:23 10° N
SL-4 R/B 2.0 01:54:33 37° SSW 01:54:33 37° SSW 01:57:35 10° SE
SL-08 R/B 3.4 01:49:46 10° SSE 01:54:43 90° W 01:59:43 10° NNW
CZ-2D R/B 2.9 01:49:43 10° N 01:54:47 40° WNW 01:57:49 22° WSW
Cosmos 1461 3.1 01:52:47 28° SSW 01:54:59 71° SE 01:59:33 10° NE
IRS-1D 3.5 01:50:21 10° N 01:55:23 70° WNW 01:58:30 24° SSW
Meteor 1-24 Rocket 3.9 01:50:18 10° NNW 01:55:35 49° W 01:58:47 22° SSW
NPP 4.2 01:51:10 10° N 01:56:16 44° WNW 01:59:16 23° SW
ADEOS II 2.1 01:52:38 10° NNE 01:57:54 78° WNW 02:01:25 22° SSW
Cosmos 1953 3.6 01:55:03 10° SSE 01:58:46 37° E 02:02:31 10° NNE
CZ-2D R/B 4.5 01:56:51 10° NNE 02:00:43 41° E 02:04:19 11° SSE
Cosmos 1892 Rocket 4.0 01:56:28 10° NNW 02:00:45 45° W 02:03:00 24° SSW
CZ-4B R/B 3.6 01:56:29 10° N 02:01:09 54° WNW 02:03:51 24° SW
Meteor 2-5 Rocket 4.5 01:58:13 10° NNW 02:03:14 34° W 02:05:59 22° SW
USA 229 DEB 3.9 02:05:21 18° SSW 02:10:15 65° SE 02:17:05 10° NE
USA 229 3.9 02:05:27 18° SSW 02:10:20 65° SE 02:17:08 10° NE
IRS-1C 4.1 02:06:52 10° NNE 02:12:14 82° WNW 02:16:32 16° SSW
Cosmos 2263 Rocket 3.0 02:07:55 11° S 02:13:03 45° ESE 02:18:20 10° NE
Cosmos 1626 3.4 02:12:43 10° NW 02:15:41 23° W 02:16:34 21° WSW
Cosmos 2297 Rocket 3.4 02:12:41 14° WSW 02:16:43 31° NW 02:21:44 10° NNE
Cosmos 2098 Rocket 3.9 02:15:11 10° NNW 02:19:47 46° W 02:25:09 11° SSW
NOSS 2-3 (C) 4.4 02:17:45 15° SSW 02:21:02 46° ESE 02:25:50 10° NE
NOSS 3-1 (A) 3.8 02:16:55 15° SSW 02:21:26 55° ESE 02:27:38 10° NE
Meteor 1-28 Rocket 3.5 02:20:46 15° S 02:23:41 48° W 02:27:23 10° NNW
Cosmos 1703 4.4 02:20:09 10° N 02:24:00 45° ENE 02:27:48 10° SSE
H-2A R/B 2.1 02:26:27 10° SSE 02:30:33 75° ENE 02:34:39 10° NNW
Timation 1 Rocket 4.4 02:26:51 14° SSW 02:32:00 90° SE 02:38:01 10° NNE
Cosmos 1603 3.7 02:26:34 10° NNW 02:32:20 77° WSW 02:38:01 10° SSE
Cosmos 1470 3.5 02:32:06 17° SW 02:34:40 37° WNW 02:38:25 10° N
SeaSat 1 3.6 02:33:51 10° NE 02:38:30 40° ESE 02:43:08 10° S
Cosmos 1544 Rocket 4.1 02:37:11 15° SW 02:40:40 43° WNW 02:44:57 10° N
Spot 4 Rocket 4.0 02:38:52 10° NNE 02:44:04 79° WNW 02:49:12 10° SSW
USA 215 3.4 02:40:54 10° NE 02:47:27 77° NNW 02:53:59 10° WSW
SL-16 R/B 4.3 02:45:10 10° WSW 02:47:36 12° W 02:50:03 10° WNW
FALCON 9 DEB 4.0 02:45:47 10° W 02:48:52 30° SW 02:51:56 10° SSE
Resurs 1-4 Rocket 4.1 02:48:24 10° NNW 02:51:20 15° NW 02:54:16 10° W
Cosmos 1048 Rocket 4.1 02:47:45 10° NNW 02:52:56 81° ENE 02:58:06 10° SSE
Cosmos 1553 Rocket 4.2 02:49:16 10° S 02:55:18 77° E 03:01:25 10° NNE
Cosmos 1602 Rocket 4.0 02:54:11 10° NNW 02:58:18 42° W 03:02:23 10° SSW
Cosmos 1943 3.2 02:52:55 10° NW 02:58:27 58° WSW 03:03:55 10° S
Cosmos 1606 Rocket 4.1 02:58:43 10° S 03:03:07 62° E 03:07:33 10° NNE
Cosmos 1745 Rocket 4.2 02:56:53 10° N 03:03:14 79° E 03:09:28 10° SSE
Cosmos 2227 Rocket 4.0 03:02:32 10° W 03:06:34 20° NW 03:10:38 10° N
MSX 3.9 03:09:09 10° N 03:14:54 70° WNW 03:20:37 10° SSW
Cosmos 1937 Rocket 4.4 03:10:10 10° WSW 03:15:03 36° NW 03:19:57 10° N
ERS-2 2.5 03:11:43 10° S 03:15:11 42° W 03:18:41 10° NNW
